Torna al catalogo

KUIPER-00020

AttivoComunicazioniLEO
NORAD 63735·PAYLOAD·🇺🇸 United States

Lanciato Apr 28, 2025 da Cape Canaveral Space Force Station

Loading…

Prossimi Passaggi (prossime 24 ore)

TLE

AggiornatoSource: CelesTrak SupGP

Epoca: Sep 14, 2026, 22:04 UTC

1 63735C 25088M   26257.91987269 -.00001356  00000+0 -17757-3 0  2573
2 63735  51.9022 346.3375 0000408  90.5135 170.4924 14.79930450    11

Traccia KUIPER-00020 in tempo reale con AllMySat

Download on the App Store